Year,Month,Day,Hour,Minute,Value (Times are PST for temperature in C)
2010,09,03,00,00,14.30
2010,09,03,00,01,14.30
2010,09,03,00,02,14.20
2010,09,03,00,03,14.20
2010,09,03,00,04,14.20
2010,09,03,00,05,14.20
2010,09,03,00,06,14.20
2010,09,03,00,07,14.20
2010,09,03,00,08,14.20
2010,09,03,00,09,14.10
2010,09,03,00,10,14.10
2010,09,03,00,11,14.10
2010,09,03,00,12,14.10
2010,09,03,00,13,14.10
2010,09,03,00,14,14.10
2010,09,03,00,15,14.10
2010,09,03,00,16,14.10
2010,09,03,00,17,14.10
2010,09,03,00,18,14.10
2010,09,03,00,19,14.00
2010,09,03,00,20,14.00
2010,09,03,00,21,14.00
2010,09,03,00,22,14.00
2010,09,03,00,23,13.90
2010,09,03,00,24,13.90
2010,09,03,00,25,13.90
2010,09,03,00,26,13.90
2010,09,03,00,27,13.90
2010,09,03,00,28,13.90
2010,09,03,00,29,13.80
2010,09,03,00,30,13.80
2010,09,03,00,31,13.80
2010,09,03,00,32,13.80
2010,09,03,00,33,13.80
2010,09,03,00,34,13.80
2010,09,03,00,35,13.80
2010,09,03,00,36,13.80
2010,09,03,00,37,13.80
2010,09,03,00,38,13.80
2010,09,03,00,39,13.80
2010,09,03,00,40,13.80
2010,09,03,00,41,13.80
2010,09,03,00,42,13.80
2010,09,03,00,43,13.80
2010,09,03,00,44,13.80
2010,09,03,00,45,13.80
2010,09,03,00,46,13.80
2010,09,03,00,47,13.80
2010,09,03,00,48,13.80
2010,09,03,00,49,13.80
2010,09,03,00,50,13.80
2010,09,03,00,51,13.80
2010,09,03,00,52,13.90
2010,09,03,00,53,13.90
2010,09,03,00,54,13.90
2010,09,03,00,55,14.00
2010,09,03,00,56,14.00
2010,09,03,00,57,14.00
2010,09,03,00,58,14.00
2010,09,03,00,59,14.00
2010,09,03,01,00,14.00
2010,09,03,01,01,13.90
2010,09,03,01,02,13.90
2010,09,03,01,03,13.90
2010,09,03,01,04,13.90
2010,09,03,01,05,13.90
2010,09,03,01,06,13.90
2010,09,03,01,07,13.80
2010,09,03,01,08,13.80
2010,09,03,01,09,13.80
2010,09,03,01,10,13.80
2010,09,03,01,11,13.80
2010,09,03,01,12,13.80
2010,09,03,01,13,13.80
2010,09,03,01,14,13.70
2010,09,03,01,15,13.70
2010,09,03,01,16,13.70
2010,09,03,01,17,13.70
2010,09,03,01,18,13.70
2010,09,03,01,19,13.70
2010,09,03,01,20,13.70
2010,09,03,01,21,13.70
2010,09,03,01,22,13.60
2010,09,03,01,23,13.60
2010,09,03,01,24,13.60
2010,09,03,01,25,13.60
2010,09,03,01,26,13.50
2010,09,03,01,27,13.50
2010,09,03,01,28,13.50
2010,09,03,01,29,13.50
2010,09,03,01,30,13.40
2010,09,03,01,31,13.40
2010,09,03,01,32,13.40
2010,09,03,01,33,13.40
2010,09,03,01,34,13.40
2010,09,03,01,35,13.40
2010,09,03,01,36,13.40
2010,09,03,01,37,13.40
2010,09,03,01,38,13.40
2010,09,03,01,39,13.40
2010,09,03,01,40,13.40
2010,09,03,01,41,13.40
2010,09,03,01,42,13.40
2010,09,03,01,43,13.40
2010,09,03,01,44,13.40
2010,09,03,01,45,13.40
2010,09,03,01,46,13.40
2010,09,03,01,47,13.40
2010,09,03,01,48,13.40
2010,09,03,01,49,13.40
2010,09,03,01,50,13.40
2010,09,03,01,51,13.30
2010,09,03,01,52,13.30
2010,09,03,01,53,13.30
2010,09,03,01,54,13.30
2010,09,03,01,55,13.30
2010,09,03,01,56,13.30
2010,09,03,01,57,13.30
2010,09,03,01,58,13.30
2010,09,03,01,59,13.30
2010,09,03,02,00,13.30
2010,09,03,02,01,13.30
2010,09,03,02,02,13.30
2010,09,03,02,03,13.20
2010,09,03,02,04,13.20
2010,09,03,02,05,13.20
2010,09,03,02,06,13.20
2010,09,03,02,07,13.20
2010,09,03,02,08,13.20
2010,09,03,02,09,13.20
2010,09,03,02,10,13.20
2010,09,03,02,11,13.20
2010,09,03,02,12,13.20
2010,09,03,02,13,13.20
2010,09,03,02,14,13.20
2010,09,03,02,15,13.20
2010,09,03,02,16,13.20
2010,09,03,02,17,13.20
2010,09,03,02,18,13.20
2010,09,03,02,19,13.10
2010,09,03,02,20,13.10
2010,09,03,02,21,13.10
2010,09,03,02,22,13.10
2010,09,03,02,23,13.10
2010,09,03,02,24,13.10
2010,09,03,02,25,13.00
2010,09,03,02,26,13.00
2010,09,03,02,27,13.00
2010,09,03,02,28,12.90
2010,09,03,02,29,12.90
2010,09,03,02,30,12.90
2010,09,03,02,31,12.90
2010,09,03,02,32,12.90
2010,09,03,02,33,12.80
2010,09,03,02,34,12.80
2010,09,03,02,35,12.80
2010,09,03,02,36,12.80
2010,09,03,02,37,12.80
2010,09,03,02,38,12.80
2010,09,03,02,39,12.80
2010,09,03,02,40,12.70
2010,09,03,02,41,12.70
2010,09,03,02,42,12.70
2010,09,03,02,43,12.70
2010,09,03,02,44,12.70
2010,09,03,02,45,12.70
2010,09,03,02,46,12.70
2010,09,03,02,47,12.70
2010,09,03,02,48,12.60
2010,09,03,02,49,12.60
2010,09,03,02,50,12.60
2010,09,03,02,51,12.60
2010,09,03,02,52,12.60
2010,09,03,02,53,12.50
2010,09,03,02,54,12.50
2010,09,03,02,55,12.50
2010,09,03,02,56,12.50
2010,09,03,02,57,12.40
2010,09,03,02,58,12.40
2010,09,03,02,59,12.40
2010,09,03,03,00,12.40
2010,09,03,03,01,12.40
2010,09,03,03,02,12.40
2010,09,03,03,03,12.40
2010,09,03,03,04,12.30
2010,09,03,03,05,12.30
2010,09,03,03,06,12.30
2010,09,03,03,07,12.30
2010,09,03,03,08,12.30
2010,09,03,03,09,12.30
2010,09,03,03,10,12.30
2010,09,03,03,11,12.30
2010,09,03,03,12,12.20
2010,09,03,03,13,12.20
2010,09,03,03,14,12.20
2010,09,03,03,15,12.20
2010,09,03,03,16,12.20
2010,09,03,03,17,12.20
2010,09,03,03,18,12.20
2010,09,03,03,19,12.20
2010,09,03,03,20,12.20
2010,09,03,03,21,12.20
2010,09,03,03,22,12.20
2010,09,03,03,23,12.10
2010,09,03,03,24,12.10
2010,09,03,03,25,12.10
2010,09,03,03,26,12.10
2010,09,03,03,27,12.10
2010,09,03,03,28,12.10
2010,09,03,03,29,12.10
2010,09,03,03,30,12.10
2010,09,03,03,31,12.10
2010,09,03,03,32,12.10
2010,09,03,03,33,12.10
2010,09,03,03,34,12.10
2010,09,03,03,35,12.10
2010,09,03,03,36,12.10
2010,09,03,03,37,12.10
2010,09,03,03,38,12.00
2010,09,03,03,39,12.00
2010,09,03,03,40,12.00
2010,09,03,03,41,12.00
2010,09,03,03,42,12.00
2010,09,03,03,43,12.00
2010,09,03,03,44,11.90
2010,09,03,03,45,11.90
2010,09,03,03,46,11.90
2010,09,03,03,47,11.90
2010,09,03,03,48,11.90
2010,09,03,03,49,11.90
2010,09,03,03,50,11.90
2010,09,03,03,51,11.90
2010,09,03,03,52,11.90
2010,09,03,03,53,11.90
2010,09,03,03,54,11.90
2010,09,03,03,55,11.90
2010,09,03,03,56,11.90
2010,09,03,03,57,11.90
2010,09,03,03,58,11.90
2010,09,03,03,59,11.90
2010,09,03,04,00,11.90
2010,09,03,04,01,11.90
2010,09,03,04,02,11.90
2010,09,03,04,03,11.90
2010,09,03,04,04,11.80
2010,09,03,04,05,11.80
2010,09,03,04,06,11.80
2010,09,03,04,07,11.80
2010,09,03,04,08,11.80
2010,09,03,04,09,11.80
2010,09,03,04,10,11.80
2010,09,03,04,11,11.80
2010,09,03,04,12,11.80
2010,09,03,04,13,11.70
2010,09,03,04,14,11.70
2010,09,03,04,15,11.70
2010,09,03,04,16,11.70
2010,09,03,04,17,11.70
2010,09,03,04,18,11.70
2010,09,03,04,19,11.70
2010,09,03,04,20,11.70
2010,09,03,04,21,11.70
2010,09,03,04,22,11.70
2010,09,03,04,23,11.70
2010,09,03,04,24,11.70
2010,09,03,04,25,11.70
2010,09,03,04,26,11.70
2010,09,03,04,27,11.70
2010,09,03,04,28,11.70
2010,09,03,04,29,11.70
2010,09,03,04,30,11.70
2010,09,03,04,31,11.70
2010,09,03,04,32,11.70
2010,09,03,04,33,11.70
2010,09,03,04,34,11.70
2010,09,03,04,35,11.70
2010,09,03,04,36,11.70
2010,09,03,04,37,11.70
2010,09,03,04,38,11.70
2010,09,03,04,39,11.70
2010,09,03,04,40,11.70
2010,09,03,04,41,11.60
2010,09,03,04,42,11.60
2010,09,03,04,43,11.60
2010,09,03,04,44,11.60
2010,09,03,04,45,11.60
2010,09,03,04,46,11.60
2010,09,03,04,47,11.60
2010,09,03,04,48,11.60
2010,09,03,04,49,11.60
2010,09,03,04,50,11.60
2010,09,03,04,51,11.60
2010,09,03,04,52,11.70
2010,09,03,04,53,11.70
2010,09,03,04,54,11.70
2010,09,03,04,55,11.70
2010,09,03,04,56,11.70
2010,09,03,04,57,11.70
2010,09,03,04,58,11.70
2010,09,03,04,59,11.70
2010,09,03,05,00,11.70
2010,09,03,05,01,11.70
2010,09,03,05,02,11.70
2010,09,03,05,03,11.70
2010,09,03,05,04,11.70
2010,09,03,05,05,11.70
2010,09,03,05,06,11.60
2010,09,03,05,07,11.60
2010,09,03,05,08,11.60
2010,09,03,05,09,11.60
2010,09,03,05,10,11.60
2010,09,03,05,11,11.60
2010,09,03,05,12,11.60
2010,09,03,05,13,11.60
2010,09,03,05,14,11.50
2010,09,03,05,15,11.50
2010,09,03,05,16,11.50
2010,09,03,05,17,11.50
2010,09,03,05,18,11.40
2010,09,03,05,19,11.40
2010,09,03,05,20,11.40
2010,09,03,05,21,11.40
2010,09,03,05,22,11.40
2010,09,03,05,23,11.40
2010,09,03,05,24,11.30
2010,09,03,05,25,11.30
2010,09,03,05,26,11.30
2010,09,03,05,27,11.30
2010,09,03,05,28,11.30
2010,09,03,05,29,11.30
2010,09,03,05,30,11.30
2010,09,03,05,31,11.30
2010,09,03,05,32,11.30
2010,09,03,05,33,11.30
2010,09,03,05,34,11.30
2010,09,03,05,35,11.20
2010,09,03,05,36,11.20
2010,09,03,05,37,11.20
2010,09,03,05,38,11.20
2010,09,03,05,39,11.20
2010,09,03,05,40,11.20
2010,09,03,05,41,11.10
2010,09,03,05,42,11.10
2010,09,03,05,43,11.10
2010,09,03,05,44,11.10
2010,09,03,05,45,11.10
2010,09,03,05,46,11.10
2010,09,03,05,47,11.10
2010,09,03,05,48,11.00
2010,09,03,05,49,11.00
2010,09,03,05,50,11.00
2010,09,03,05,51,11.00
2010,09,03,05,52,11.00
2010,09,03,05,53,10.90
2010,09,03,05,54,10.90
2010,09,03,05,55,10.90
2010,09,03,05,56,10.90
2010,09,03,05,57,10.90
2010,09,03,05,58,10.90
2010,09,03,05,59,10.80
2010,09,03,06,00,10.80
2010,09,03,06,01,10.80
2010,09,03,06,02,10.80
2010,09,03,06,03,10.80
2010,09,03,06,04,10.80
2010,09,03,06,05,10.80
2010,09,03,06,06,10.80
2010,09,03,06,07,10.80
2010,09,03,06,08,10.80
2010,09,03,06,09,10.80
2010,09,03,06,10,10.80
2010,09,03,06,11,10.80
2010,09,03,06,12,10.80
2010,09,03,06,13,10.70
2010,09,03,06,14,10.70
2010,09,03,06,15,10.70
2010,09,03,06,16,10.70
2010,09,03,06,17,10.70
2010,09,03,06,18,10.70
2010,09,03,06,19,10.70
2010,09,03,06,20,10.60
2010,09,03,06,21,10.60
2010,09,03,06,22,10.60
2010,09,03,06,23,10.60
2010,09,03,06,24,10.60
2010,09,03,06,25,10.60
2010,09,03,06,26,10.60
2010,09,03,06,27,10.60
2010,09,03,06,28,10.60
2010,09,03,06,29,10.60
2010,09,03,06,30,10.60
2010,09,03,06,31,10.60
2010,09,03,06,32,10.60
2010,09,03,06,33,10.60
2010,09,03,06,34,10.60
2010,09,03,06,35,10.60
2010,09,03,06,36,10.60
2010,09,03,06,37,10.60
2010,09,03,06,38,10.60
2010,09,03,06,39,10.50
2010,09,03,06,40,10.60
2010,09,03,06,41,10.50
2010,09,03,06,42,10.50
2010,09,03,06,43,10.50
2010,09,03,06,44,10.50
2010,09,03,06,45,10.50
2010,09,03,06,46,10.50
2010,09,03,06,47,10.50
2010,09,03,06,48,10.50
2010,09,03,06,49,10.50
2010,09,03,06,50,10.50
2010,09,03,06,51,10.50
2010,09,03,06,52,10.50
2010,09,03,06,53,10.50
2010,09,03,06,54,10.50
2010,09,03,06,55,10.50
2010,09,03,06,56,10.60
2010,09,03,06,57,10.60
2010,09,03,06,58,10.60
2010,09,03,06,59,10.60
2010,09,03,07,00,10.60
2010,09,03,07,01,10.60
2010,09,03,07,02,10.60
2010,09,03,07,03,10.60
2010,09,03,07,04,10.60
2010,09,03,07,05,10.60
2010,09,03,07,06,10.60
2010,09,03,07,07,10.60
2010,09,03,07,08,10.60
2010,09,03,07,09,10.60
2010,09,03,07,10,10.60
2010,09,03,07,11,10.60
2010,09,03,07,12,10.70
2010,09,03,07,13,10.70
2010,09,03,07,14,10.70
2010,09,03,07,15,10.70
2010,09,03,07,16,10.70
2010,09,03,07,17,10.70
2010,09,03,07,18,10.80
2010,09,03,07,19,10.80
2010,09,03,07,20,10.80
2010,09,03,07,21,10.80
2010,09,03,07,22,10.80
2010,09,03,07,23,10.80
2010,09,03,07,24,10.90
2010,09,03,07,25,10.90
2010,09,03,07,26,10.90
2010,09,03,07,27,11.00
2010,09,03,07,28,11.00
2010,09,03,07,29,11.00
2010,09,03,07,30,11.10
2010,09,03,07,31,11.10
2010,09,03,07,32,11.10
2010,09,03,07,33,11.20
2010,09,03,07,34,11.20
2010,09,03,07,35,11.20
2010,09,03,07,36,11.30
2010,09,03,07,37,11.30
2010,09,03,07,38,11.30
2010,09,03,07,39,11.40
2010,09,03,07,40,11.40
2010,09,03,07,41,11.40
2010,09,03,07,42,11.50
2010,09,03,07,43,11.50
2010,09,03,07,44,11.60
2010,09,03,07,45,11.60
2010,09,03,07,46,11.70
2010,09,03,07,47,11.70
2010,09,03,07,48,11.80
2010,09,03,07,49,11.80
2010,09,03,07,50,11.90
2010,09,03,07,51,11.90
2010,09,03,07,52,12.00
2010,09,03,07,53,12.00
2010,09,03,07,54,12.10
2010,09,03,07,55,12.20
2010,09,03,07,56,12.20
2010,09,03,07,57,12.30
2010,09,03,07,58,12.40
2010,09,03,07,59,12.40
2010,09,03,08,00,12.50
2010,09,03,08,01,12.60
2010,09,03,08,02,12.60
2010,09,03,08,03,12.70
2010,09,03,08,04,12.70
2010,09,03,08,05,12.80
2010,09,03,08,06,12.80
2010,09,03,08,07,12.90
2010,09,03,08,08,12.90
2010,09,03,08,09,13.00
2010,09,03,08,10,13.10
2010,09,03,08,11,13.20
2010,09,03,08,12,13.20
2010,09,03,08,13,13.30
2010,09,03,08,14,13.40
2010,09,03,08,15,13.40
2010,09,03,08,16,13.50
2010,09,03,08,17,13.60
2010,09,03,08,18,13.70
2010,09,03,08,19,13.80
2010,09,03,08,20,13.80
2010,09,03,08,21,13.90
2010,09,03,08,22,14.00
2010,09,03,08,23,14.00
2010,09,03,08,24,14.10
2010,09,03,08,25,14.20
2010,09,03,08,26,14.30
2010,09,03,08,27,14.30
2010,09,03,08,28,14.50
2010,09,03,08,29,14.60
2010,09,03,08,30,14.80
2010,09,03,08,31,15.00
2010,09,03,08,32,15.00
2010,09,03,08,33,15.20
2010,09,03,08,34,15.40
2010,09,03,08,35,15.50
2010,09,03,08,36,15.70
2010,09,03,08,37,15.80
2010,09,03,08,38,15.90
2010,09,03,08,39,16.10
2010,09,03,08,40,16.20
2010,09,03,08,41,16.30
2010,09,03,08,42,16.40
2010,09,03,08,43,16.50
2010,09,03,08,44,16.60
2010,09,03,08,45,16.70
2010,09,03,08,46,16.80
2010,09,03,08,47,16.90
2010,09,03,08,48,16.90
2010,09,03,08,49,17.00
2010,09,03,08,50,17.10
2010,09,03,08,51,17.10
2010,09,03,08,52,17.20
2010,09,03,08,53,17.30
2010,09,03,08,54,17.40
2010,09,03,08,55,17.50
2010,09,03,08,56,17.60
2010,09,03,08,57,17.70
2010,09,03,08,58,17.80
2010,09,03,08,59,17.80
2010,09,03,09,00,17.90
2010,09,03,09,01,17.90
2010,09,03,09,02,18.00
2010,09,03,09,03,18.00
2010,09,03,09,04,17.90
2010,09,03,09,05,17.90
2010,09,03,09,06,17.90
2010,09,03,09,07,17.90
2010,09,03,09,08,17.90
2010,09,03,09,09,17.90
2010,09,03,09,10,17.90
2010,09,03,09,11,18.00
2010,09,03,09,12,18.00
2010,09,03,09,13,18.10
2010,09,03,09,14,18.10
2010,09,03,09,15,18.10
2010,09,03,09,16,18.10
2010,09,03,09,17,18.20
2010,09,03,09,18,18.20
2010,09,03,09,19,18.20
2010,09,03,09,20,18.20
2010,09,03,09,21,18.20
2010,09,03,09,22,18.20
2010,09,03,09,23,18.30
2010,09,03,09,24,18.30
2010,09,03,09,25,18.30
2010,09,03,09,26,18.40
2010,09,03,09,27,18.40
2010,09,03,09,28,18.50
2010,09,03,09,29,18.60
2010,09,03,09,30,18.70
2010,09,03,09,31,18.70
2010,09,03,09,32,18.80
2010,09,03,09,33,18.80
2010,09,03,09,34,18.80
2010,09,03,09,35,18.90
2010,09,03,09,36,18.90
2010,09,03,09,37,18.90
2010,09,03,09,38,19.00
2010,09,03,09,39,19.00
2010,09,03,09,40,19.00
2010,09,03,09,41,19.10
2010,09,03,09,42,19.10
2010,09,03,09,43,19.20
2010,09,03,09,44,19.20
2010,09,03,09,45,19.20
2010,09,03,09,46,19.20
2010,09,03,09,47,19.20
2010,09,03,09,48,19.20
2010,09,03,09,49,19.20
2010,09,03,09,50,19.20
2010,09,03,09,51,19.20
2010,09,03,09,52,19.20
2010,09,03,09,53,19.30
2010,09,03,09,54,19.30
2010,09,03,09,55,19.40
2010,09,03,09,56,19.40
2010,09,03,09,57,19.50
2010,09,03,09,58,19.50
2010,09,03,09,59,19.60
2010,09,03,10,00,19.60
2010,09,03,10,01,19.60
2010,09,03,10,02,19.60
2010,09,03,10,03,19.70
2010,09,03,10,04,19.70
2010,09,03,10,05,19.70
2010,09,03,10,06,19.70
2010,09,03,10,07,19.80
2010,09,03,10,08,19.80
2010,09,03,10,09,19.90
2010,09,03,10,10,20.00
2010,09,03,10,11,20.00
2010,09,03,10,12,20.00
2010,09,03,10,13,20.00
2010,09,03,10,14,20.00
2010,09,03,10,15,20.00
2010,09,03,10,16,19.90
2010,09,03,10,17,19.90
2010,09,03,10,18,19.90
2010,09,03,10,19,19.90
2010,09,03,10,20,19.90
2010,09,03,10,21,19.90
2010,09,03,10,22,19.90
2010,09,03,10,23,19.90
2010,09,03,10,24,19.80
2010,09,03,10,25,19.80
2010,09,03,10,26,19.80
2010,09,03,10,27,19.80
2010,09,03,10,28,19.80
2010,09,03,10,29,19.90
2010,09,03,10,30,19.90
2010,09,03,10,31,19.90
2010,09,03,10,32,20.00
2010,09,03,10,33,20.00
2010,09,03,10,34,20.00
2010,09,03,10,35,20.00
2010,09,03,10,36,19.90
2010,09,03,10,37,19.80
2010,09,03,10,38,19.70
2010,09,03,10,39,19.60
2010,09,03,10,40,19.60
2010,09,03,10,41,19.50
2010,09,03,10,42,19.50
2010,09,03,10,43,19.50
2010,09,03,10,44,19.60
2010,09,03,10,45,19.60
2010,09,03,10,46,19.60
2010,09,03,10,47,19.70
2010,09,03,10,48,19.80
2010,09,03,10,49,19.80
2010,09,03,10,50,19.90
2010,09,03,10,51,20.00
2010,09,03,10,52,20.00
2010,09,03,10,53,20.10
2010,09,03,10,54,20.20
2010,09,03,10,55,20.30
2010,09,03,10,56,20.30
2010,09,03,10,57,20.30
2010,09,03,10,58,20.40
2010,09,03,10,59,20.40
2010,09,03,11,00,20.40
2010,09,03,11,01,20.40
2010,09,03,11,02,20.40
2010,09,03,11,03,20.40
2010,09,03,11,04,20.40
2010,09,03,11,05,20.40
2010,09,03,11,06,20.40
2010,09,03,11,07,20.40
2010,09,03,11,08,20.50
2010,09,03,11,09,20.60
2010,09,03,11,10,20.60
2010,09,03,11,11,20.50
2010,09,03,11,12,20.50
2010,09,03,11,13,20.40
2010,09,03,11,14,20.40
2010,09,03,11,15,20.30
2010,09,03,11,16,20.30
2010,09,03,11,17,20.30
2010,09,03,11,18,20.30
2010,09,03,11,19,20.30
2010,09,03,11,20,20.40
2010,09,03,11,21,20.40
2010,09,03,11,22,20.50
2010,09,03,11,23,20.60
2010,09,03,11,24,20.70
2010,09,03,11,25,20.70
2010,09,03,11,26,20.80
2010,09,03,11,27,20.80
2010,09,03,11,28,20.80
2010,09,03,11,29,20.80
2010,09,03,11,30,20.80
2010,09,03,11,31,20.80
2010,09,03,11,32,20.80
2010,09,03,11,33,20.80
2010,09,03,11,34,20.80
2010,09,03,11,35,20.80
2010,09,03,11,36,20.80
2010,09,03,11,37,20.90
2010,09,03,11,38,20.80
2010,09,03,11,39,20.90
2010,09,03,11,40,20.90
2010,09,03,11,41,20.90
2010,09,03,11,42,21.00
2010,09,03,11,43,21.10
2010,09,03,11,44,21.10
2010,09,03,11,45,21.10
2010,09,03,11,46,21.00
2010,09,03,11,47,21.00
2010,09,03,11,48,21.00
2010,09,03,11,49,21.10
2010,09,03,11,50,21.10
2010,09,03,11,51,21.20
2010,09,03,11,52,21.20
2010,09,03,11,53,21.20
2010,09,03,11,54,21.20
2010,09,03,11,55,21.20
2010,09,03,11,56,21.10
2010,09,03,11,57,21.10
2010,09,03,11,58,21.10
2010,09,03,11,59,21.10
2010,09,03,12,00,21.10
2010,09,03,12,01,21.20
2010,09,03,12,02,21.20
2010,09,03,12,03,21.20
2010,09,03,12,04,21.30
2010,09,03,12,05,21.30
2010,09,03,12,06,21.30
2010,09,03,12,07,21.30
2010,09,03,12,08,21.30
2010,09,03,12,09,21.30
2010,09,03,12,10,21.30
2010,09,03,12,11,21.30
2010,09,03,12,12,21.30
2010,09,03,12,13,21.30
2010,09,03,12,14,21.30
2010,09,03,12,15,21.30
2010,09,03,12,16,21.20
2010,09,03,12,17,21.30
2010,09,03,12,18,21.30
2010,09,03,12,19,21.40
2010,09,03,12,20,21.40
2010,09,03,12,21,21.50
2010,09,03,12,22,21.60
2010,09,03,12,23,21.60
2010,09,03,12,24,21.70
2010,09,03,12,25,21.80
2010,09,03,12,26,21.90
2010,09,03,12,27,21.90
2010,09,03,12,28,22.00
2010,09,03,12,29,22.10
2010,09,03,12,30,22.10
2010,09,03,12,31,22.20
2010,09,03,12,32,22.20
2010,09,03,12,33,22.20
2010,09,03,12,34,22.20
2010,09,03,12,35,22.20
2010,09,03,12,36,22.30
2010,09,03,12,37,22.40
2010,09,03,12,38,22.50
2010,09,03,12,39,22.70
2010,09,03,12,40,22.90
2010,09,03,12,41,23.00
2010,09,03,12,42,23.20
2010,09,03,12,43,23.30
2010,09,03,12,44,23.40
2010,09,03,12,45,23.60
2010,09,03,12,46,23.70
2010,09,03,12,47,23.70
2010,09,03,12,48,23.80
2010,09,03,12,49,23.90
2010,09,03,12,50,24.00
2010,09,03,12,51,24.10
2010,09,03,12,52,24.10
2010,09,03,12,53,24.10
2010,09,03,12,54,24.10
2010,09,03,12,55,24.10
2010,09,03,12,56,24.20
2010,09,03,12,57,24.20
2010,09,03,12,58,24.20
2010,09,03,12,59,24.30
2010,09,03,13,00,24.30
2010,09,03,13,01,24.40
2010,09,03,13,02,24.40
2010,09,03,13,03,24.40
2010,09,03,13,04,24.40
2010,09,03,13,05,24.40
2010,09,03,13,06,24.50
2010,09,03,13,07,24.60
2010,09,03,13,08,24.60
2010,09,03,13,09,24.60
2010,09,03,13,10,24.70
2010,09,03,13,11,24.70
2010,09,03,13,12,24.70
2010,09,03,13,13,24.70
2010,09,03,13,14,24.70
2010,09,03,13,15,24.60
2010,09,03,13,16,24.60
2010,09,03,13,17,24.60
2010,09,03,13,18,24.60
2010,09,03,13,19,24.60
2010,09,03,13,20,24.50
2010,09,03,13,21,24.40
2010,09,03,13,22,24.40
2010,09,03,13,23,24.40
2010,09,03,13,24,24.50
2010,09,03,13,25,24.50
2010,09,03,13,26,24.60
2010,09,03,13,27,24.70
2010,09,03,13,28,24.80
2010,09,03,13,29,24.80
2010,09,03,13,30,24.80
2010,09,03,13,31,24.80
2010,09,03,13,32,24.80
2010,09,03,13,33,24.80
2010,09,03,13,34,24.80
2010,09,03,13,35,24.80
2010,09,03,13,36,24.90
2010,09,03,13,37,25.00
2010,09,03,13,38,25.10
2010,09,03,13,39,25.20
2010,09,03,13,40,25.20
2010,09,03,13,41,25.20
2010,09,03,13,42,25.30
2010,09,03,13,43,25.30
2010,09,03,13,44,25.20
2010,09,03,13,45,25.20
2010,09,03,13,46,25.20
2010,09,03,13,47,25.20
2010,09,03,13,48,25.20
2010,09,03,13,49,25.10
2010,09,03,13,50,24.80
2010,09,03,13,51,24.60
2010,09,03,13,52,24.40
2010,09,03,13,53,24.30
2010,09,03,13,54,24.20
2010,09,03,13,55,24.00
2010,09,03,13,56,23.80
2010,09,03,13,57,23.50
2010,09,03,13,58,23.20
2010,09,03,13,59,23.00
2010,09,03,14,00,22.80
2010,09,03,14,01,22.60
2010,09,03,14,02,22.40
2010,09,03,14,03,22.30
2010,09,03,14,04,22.20
2010,09,03,14,05,22.10
2010,09,03,14,06,22.00
2010,09,03,14,07,22.00
2010,09,03,14,08,22.00
2010,09,03,14,09,22.00
2010,09,03,14,10,22.10
2010,09,03,14,11,22.20
2010,09,03,14,12,22.30
2010,09,03,14,13,22.40
2010,09,03,14,14,22.60
2010,09,03,14,15,22.80
2010,09,03,14,16,22.90
2010,09,03,14,17,23.00
2010,09,03,14,18,23.30
2010,09,03,14,19,23.50
2010,09,03,14,20,23.80
2010,09,03,14,21,24.10
2010,09,03,14,22,24.30
2010,09,03,14,23,24.50
2010,09,03,14,24,24.70
2010,09,03,14,25,24.80
2010,09,03,14,26,25.00
2010,09,03,14,27,25.20
2010,09,03,14,28,25.30
2010,09,03,14,29,25.40
2010,09,03,14,30,25.50
2010,09,03,14,31,25.70
2010,09,03,14,32,25.80
2010,09,03,14,33,25.90
2010,09,03,14,34,25.90
2010,09,03,14,35,25.90
2010,09,03,14,36,25.90
2010,09,03,14,37,25.90
2010,09,03,14,38,26.00
2010,09,03,14,39,26.00
2010,09,03,14,40,26.00
2010,09,03,14,41,26.00
2010,09,03,14,42,26.00
2010,09,03,14,43,25.90
2010,09,03,14,44,25.90
2010,09,03,14,45,25.80
2010,09,03,14,46,25.60
2010,09,03,14,47,25.50
2010,09,03,14,48,25.30
2010,09,03,14,49,25.20
2010,09,03,14,50,25.10
2010,09,03,14,51,25.10
2010,09,03,14,52,25.00
2010,09,03,14,53,25.00
2010,09,03,14,54,25.10
2010,09,03,14,55,25.10
2010,09,03,14,56,25.20
2010,09,03,14,57,25.30
2010,09,03,14,58,25.40
2010,09,03,14,59,25.40
2010,09,03,15,00,25.50
2010,09,03,15,01,25.60
2010,09,03,15,02,25.70
2010,09,03,15,03,25.80
2010,09,03,15,04,25.80
2010,09,03,15,05,25.90
2010,09,03,15,06,25.90
2010,09,03,15,07,25.90
2010,09,03,15,08,25.90
2010,09,03,15,09,25.80
2010,09,03,15,10,25.80
2010,09,03,15,11,25.60
2010,09,03,15,12,25.50
2010,09,03,15,13,25.50
2010,09,03,15,14,25.50
2010,09,03,15,15,25.50
2010,09,03,15,16,25.60
2010,09,03,15,17,25.70
2010,09,03,15,18,25.70
2010,09,03,15,19,25.80
2010,09,03,15,20,25.90
2010,09,03,15,21,25.90
2010,09,03,15,22,25.90
2010,09,03,15,23,26.00
2010,09,03,15,24,26.10
2010,09,03,15,25,26.00
2010,09,03,15,26,26.00
2010,09,03,15,27,26.00
2010,09,03,15,28,26.10
2010,09,03,15,29,26.10
2010,09,03,15,30,26.20
2010,09,03,15,31,26.30
2010,09,03,15,32,26.30
2010,09,03,15,33,26.40
2010,09,03,15,34,26.50
2010,09,03,15,35,26.60
2010,09,03,15,36,26.70
2010,09,03,15,37,26.70
2010,09,03,15,38,26.80
2010,09,03,15,39,26.80
2010,09,03,15,40,26.90
2010,09,03,15,41,27.00
2010,09,03,15,42,27.00
2010,09,03,15,43,27.10
2010,09,03,15,44,27.20
2010,09,03,15,45,27.20
2010,09,03,15,46,27.20
2010,09,03,15,47,27.20
2010,09,03,15,48,27.20
2010,09,03,15,49,27.20
2010,09,03,15,50,27.20
2010,09,03,15,51,27.20
2010,09,03,15,52,27.10
2010,09,03,15,53,27.10
2010,09,03,15,54,26.90
2010,09,03,15,55,26.80
2010,09,03,15,56,26.70
2010,09,03,15,57,26.60
2010,09,03,15,58,26.60
2010,09,03,15,59,26.40
2010,09,03,16,00,26.30
2010,09,03,16,01,26.20
2010,09,03,16,02,26.20
2010,09,03,16,03,26.10
2010,09,03,16,04,26.00
2010,09,03,16,05,25.90
2010,09,03,16,06,25.90
2010,09,03,16,07,25.90
2010,09,03,16,08,25.80
2010,09,03,16,09,25.80
2010,09,03,16,10,25.90
2010,09,03,16,11,25.90
2010,09,03,16,12,25.90
2010,09,03,16,13,25.90
2010,09,03,16,14,25.90
2010,09,03,16,15,25.90
2010,09,03,16,16,25.90
2010,09,03,16,17,25.90
2010,09,03,16,18,25.80
2010,09,03,16,19,25.90
2010,09,03,16,20,25.90
2010,09,03,16,21,25.90
2010,09,03,16,22,25.90
2010,09,03,16,23,25.90
2010,09,03,16,24,26.00
2010,09,03,16,25,25.90
2010,09,03,16,26,25.90
2010,09,03,16,27,26.00
2010,09,03,16,28,26.10
2010,09,03,16,29,26.10
2010,09,03,16,30,26.10
2010,09,03,16,31,26.10
2010,09,03,16,32,26.10
2010,09,03,16,33,26.00
2010,09,03,16,34,26.00
2010,09,03,16,35,25.90
2010,09,03,16,36,25.90
2010,09,03,16,37,25.90
2010,09,03,16,38,25.80
2010,09,03,16,39,25.80
2010,09,03,16,40,25.70
2010,09,03,16,41,25.60
2010,09,03,16,42,25.60
2010,09,03,16,43,25.50
2010,09,03,16,44,25.50
2010,09,03,16,45,25.40
2010,09,03,16,46,25.40
2010,09,03,16,47,25.40
2010,09,03,16,48,25.40
2010,09,03,16,49,25.40
2010,09,03,16,50,25.40
2010,09,03,16,51,25.30
2010,09,03,16,52,25.30
2010,09,03,16,53,25.40
2010,09,03,16,54,25.40
2010,09,03,16,55,25.40
2010,09,03,16,56,25.40
2010,09,03,16,57,25.50
2010,09,03,16,58,25.50
2010,09,03,16,59,25.50
2010,09,03,17,00,25.60
2010,09,03,17,01,25.60
2010,09,03,17,02,25.70
2010,09,03,17,03,25.70
2010,09,03,17,04,25.70
2010,09,03,17,05,25.80
2010,09,03,17,06,25.80
2010,09,03,17,07,25.90
2010,09,03,17,08,25.90
2010,09,03,17,09,25.90
2010,09,03,17,10,25.90
2010,09,03,17,11,25.90
2010,09,03,17,12,25.90
2010,09,03,17,13,25.90
2010,09,03,17,14,25.90
2010,09,03,17,15,25.80
2010,09,03,17,16,25.70
2010,09,03,17,17,25.70
2010,09,03,17,18,25.70
2010,09,03,17,19,25.60